Year,Month,Day,Hour,Minute,Value (Times are PST for temperature in C)
2015,06,29,00,00,25.20
2015,06,29,00,01,25.20
2015,06,29,00,02,25.20
2015,06,29,00,03,25.20
2015,06,29,00,04,25.20
2015,06,29,00,05,25.20
2015,06,29,00,06,25.10
2015,06,29,00,07,25.10
2015,06,29,00,08,25.10
2015,06,29,00,09,25.10
2015,06,29,00,10,25.00
2015,06,29,00,11,25.00
2015,06,29,00,12,25.00
2015,06,29,00,13,25.00
2015,06,29,00,14,25.00
2015,06,29,00,15,24.90
2015,06,29,00,16,24.90
2015,06,29,00,17,24.90
2015,06,29,00,18,24.90
2015,06,29,00,19,24.90
2015,06,29,00,20,24.90
2015,06,29,00,21,24.90
2015,06,29,00,22,24.90
2015,06,29,00,23,24.90
2015,06,29,00,24,24.90
2015,06,29,00,25,24.90
2015,06,29,00,26,24.90
2015,06,29,00,27,25.00
2015,06,29,00,28,24.90
2015,06,29,00,29,24.90
2015,06,29,00,30,24.90
2015,06,29,00,31,24.90
2015,06,29,00,32,24.70
2015,06,29,00,33,24.60
2015,06,29,00,34,24.30
2015,06,29,00,35,24.10
2015,06,29,00,36,23.90
2015,06,29,00,37,23.70
2015,06,29,00,38,23.60
2015,06,29,00,39,23.40
2015,06,29,00,40,23.30
2015,06,29,00,41,23.30
2015,06,29,00,42,23.30
2015,06,29,00,43,23.30
2015,06,29,00,44,23.20
2015,06,29,00,45,23.10
2015,06,29,00,46,23.00
2015,06,29,00,47,23.00
2015,06,29,00,48,22.90
2015,06,29,00,49,22.80
2015,06,29,00,50,22.70
2015,06,29,00,51,22.70
2015,06,29,00,52,22.60
2015,06,29,00,53,22.50
2015,06,29,00,54,22.40
2015,06,29,00,55,22.40
2015,06,29,00,56,22.30
2015,06,29,00,57,22.30
2015,06,29,00,58,22.30
2015,06,29,00,59,22.20
2015,06,29,01,00,22.20
2015,06,29,01,01,22.20
2015,06,29,01,02,22.20
2015,06,29,01,03,22.10
2015,06,29,01,04,22.10
2015,06,29,01,05,22.10
2015,06,29,01,06,22.00
2015,06,29,01,07,22.00
2015,06,29,01,08,22.00
2015,06,29,01,09,22.00
2015,06,29,01,10,22.00
2015,06,29,01,11,22.00
2015,06,29,01,12,21.90
2015,06,29,01,13,21.90
2015,06,29,01,14,21.90
2015,06,29,01,15,21.90
2015,06,29,01,16,21.90
2015,06,29,01,17,21.90
2015,06,29,01,18,21.80
2015,06,29,01,19,21.80
2015,06,29,01,20,21.80
2015,06,29,01,21,21.80
2015,06,29,01,22,21.80
2015,06,29,01,23,21.80
2015,06,29,01,24,21.80
2015,06,29,01,25,21.80
2015,06,29,01,26,21.80
2015,06,29,01,27,21.70
2015,06,29,01,28,21.70
2015,06,29,01,29,21.70
2015,06,29,01,30,21.70
2015,06,29,01,31,21.60
2015,06,29,01,32,21.60
2015,06,29,01,33,21.60
2015,06,29,01,34,21.50
2015,06,29,01,35,21.50
2015,06,29,01,36,21.40
2015,06,29,01,37,21.40
2015,06,29,01,38,21.40
2015,06,29,01,39,21.40
2015,06,29,01,40,21.40
2015,06,29,01,41,21.30
2015,06,29,01,42,21.30
2015,06,29,01,43,21.30
2015,06,29,01,44,21.30
2015,06,29,01,45,21.30
2015,06,29,01,46,21.30
2015,06,29,01,47,21.30
2015,06,29,01,48,21.20
2015,06,29,01,49,21.20
2015,06,29,01,50,21.20
2015,06,29,01,51,21.10
2015,06,29,01,52,21.10
2015,06,29,01,53,21.00
2015,06,29,01,54,20.90
2015,06,29,01,55,20.90
2015,06,29,01,56,20.80
2015,06,29,01,57,20.70
2015,06,29,01,58,20.60
2015,06,29,01,59,20.60
2015,06,29,02,00,20.50
2015,06,29,02,01,20.50
2015,06,29,02,02,20.40
2015,06,29,02,03,20.40
2015,06,29,02,04,20.40
2015,06,29,02,05,20.30
2015,06,29,02,06,20.30
2015,06,29,02,07,20.30
2015,06,29,02,08,20.30
2015,06,29,02,09,20.30
2015,06,29,02,10,20.30
2015,06,29,02,11,20.20
2015,06,29,02,12,20.20
2015,06,29,02,13,20.20
2015,06,29,02,14,20.10
2015,06,29,02,15,20.10
2015,06,29,02,16,20.00
2015,06,29,02,17,20.00
2015,06,29,02,18,19.90
2015,06,29,02,19,19.90
2015,06,29,02,20,19.90
2015,06,29,02,21,19.80
2015,06,29,02,22,19.80
2015,06,29,02,23,19.80
2015,06,29,02,24,19.70
2015,06,29,02,25,19.70
2015,06,29,02,26,19.70
2015,06,29,02,27,19.60
2015,06,29,02,28,19.60
2015,06,29,02,29,19.60
2015,06,29,02,30,19.60
2015,06,29,02,31,19.60
2015,06,29,02,32,19.60
2015,06,29,02,33,19.60
2015,06,29,02,34,19.60
2015,06,29,02,35,19.60
2015,06,29,02,36,19.60
2015,06,29,02,37,19.60
2015,06,29,02,38,19.60
2015,06,29,02,39,19.60
2015,06,29,02,40,19.60
2015,06,29,02,41,19.60
2015,06,29,02,42,19.60
2015,06,29,02,43,19.60
2015,06,29,02,44,19.60
2015,06,29,02,45,19.60
2015,06,29,02,46,19.50
2015,06,29,02,47,19.50
2015,06,29,02,48,19.50
2015,06,29,02,49,19.40
2015,06,29,02,50,19.40
2015,06,29,02,51,19.30
2015,06,29,02,52,19.30
2015,06,29,02,53,19.30
2015,06,29,02,54,19.20
2015,06,29,02,55,19.20
2015,06,29,02,56,19.10
2015,06,29,02,57,19.10
2015,06,29,02,58,19.10
2015,06,29,02,59,19.10
2015,06,29,03,00,19.00
2015,06,29,03,01,19.10
2015,06,29,03,02,19.00
2015,06,29,03,03,19.00
2015,06,29,03,04,19.00
2015,06,29,03,05,19.00
2015,06,29,03,06,19.00
2015,06,29,03,07,18.90
2015,06,29,03,08,18.90
2015,06,29,03,09,18.90
2015,06,29,03,10,18.90
2015,06,29,03,11,18.90
2015,06,29,03,12,18.90
2015,06,29,03,13,18.90
2015,06,29,03,14,18.90
2015,06,29,03,15,18.90
2015,06,29,03,16,18.90
2015,06,29,03,17,18.90
2015,06,29,03,18,18.90
2015,06,29,03,19,18.90
2015,06,29,03,20,18.90
2015,06,29,03,21,18.90
2015,06,29,03,22,18.90
2015,06,29,03,23,18.90
2015,06,29,03,24,18.90
2015,06,29,03,25,18.90
2015,06,29,03,26,18.90
2015,06,29,03,27,18.90
2015,06,29,03,28,18.90
2015,06,29,03,29,18.90
2015,06,29,03,30,18.80
2015,06,29,03,31,18.80
2015,06,29,03,32,18.80
2015,06,29,03,33,18.80
2015,06,29,03,34,18.80
2015,06,29,03,35,18.70
2015,06,29,03,36,18.70
2015,06,29,03,37,18.70
2015,06,29,03,38,18.70
2015,06,29,03,39,18.60
2015,06,29,03,40,18.60
2015,06,29,03,41,18.60
2015,06,29,03,42,18.50
2015,06,29,03,43,18.50
2015,06,29,03,44,18.50
2015,06,29,03,45,18.40
2015,06,29,03,46,18.40
2015,06,29,03,47,18.40
2015,06,29,03,48,18.40
2015,06,29,03,49,18.30
2015,06,29,03,50,18.30
2015,06,29,03,51,18.30
2015,06,29,03,52,18.30
2015,06,29,03,53,18.20
2015,06,29,03,54,18.20
2015,06,29,03,55,18.20
2015,06,29,03,56,18.20
2015,06,29,03,57,18.30
2015,06,29,03,58,18.30
2015,06,29,03,59,18.30
2015,06,29,04,00,18.30
2015,06,29,04,01,18.30
2015,06,29,04,02,18.30
2015,06,29,04,03,18.20
2015,06,29,04,04,18.20
2015,06,29,04,05,18.20
2015,06,29,04,06,18.20
2015,06,29,04,07,18.20
2015,06,29,04,08,18.20
2015,06,29,04,09,18.20
2015,06,29,04,10,18.20
2015,06,29,04,11,18.20
2015,06,29,04,12,18.20
2015,06,29,04,13,18.20
2015,06,29,04,14,18.20
2015,06,29,04,15,18.20
2015,06,29,04,16,18.20
2015,06,29,04,17,18.20
2015,06,29,04,18,18.10
2015,06,29,04,19,18.10
2015,06,29,04,20,18.10
2015,06,29,04,21,18.00
2015,06,29,04,22,18.00
2015,06,29,04,23,18.00
2015,06,29,04,24,17.90
2015,06,29,04,25,17.90
2015,06,29,04,26,17.90
2015,06,29,04,27,17.90
2015,06,29,04,28,17.90
2015,06,29,04,29,18.00
2015,06,29,04,30,18.10
2015,06,29,04,31,18.20
2015,06,29,04,32,18.20
2015,06,29,04,33,18.30
2015,06,29,04,34,18.30
2015,06,29,04,35,18.40
2015,06,29,04,36,18.40
2015,06,29,04,37,18.40
2015,06,29,04,38,18.40
2015,06,29,04,39,18.50
2015,06,29,04,40,18.50
2015,06,29,04,41,18.50
2015,06,29,04,42,18.50
2015,06,29,04,43,18.50
2015,06,29,04,44,18.50
2015,06,29,04,45,18.50
2015,06,29,04,46,18.50
2015,06,29,04,47,18.40
2015,06,29,04,48,18.40
2015,06,29,04,49,18.40
2015,06,29,04,50,18.40
2015,06,29,04,51,18.40
2015,06,29,04,52,18.40
2015,06,29,04,53,18.40
2015,06,29,04,54,18.40
2015,06,29,04,55,18.40
2015,06,29,04,56,18.40
2015,06,29,04,57,18.40
2015,06,29,04,58,18.40
2015,06,29,04,59,18.40
2015,06,29,05,00,18.40
2015,06,29,05,01,18.40
2015,06,29,05,02,18.40
2015,06,29,05,03,18.50
2015,06,29,05,04,18.50
2015,06,29,05,05,18.60
2015,06,29,05,06,18.60
2015,06,29,05,07,18.60
2015,06,29,05,08,18.60
2015,06,29,05,09,18.60
2015,06,29,05,10,18.60
2015,06,29,05,11,18.60
2015,06,29,05,12,18.60
2015,06,29,05,13,18.60
2015,06,29,05,14,18.60
2015,06,29,05,15,18.60
2015,06,29,05,16,18.60
2015,06,29,05,17,18.50
2015,06,29,05,18,18.50
2015,06,29,05,19,18.50
2015,06,29,05,20,18.50
2015,06,29,05,21,18.50
2015,06,29,05,22,18.50
2015,06,29,05,23,18.50
2015,06,29,05,24,18.40
2015,06,29,05,25,18.40
2015,06,29,05,26,18.40
2015,06,29,05,27,18.40
2015,06,29,05,28,18.40
2015,06,29,05,29,18.30
2015,06,29,05,30,18.30
2015,06,29,05,31,18.30
2015,06,29,05,32,18.30
2015,06,29,05,33,18.20
2015,06,29,05,34,18.20
2015,06,29,05,35,18.20
2015,06,29,05,36,18.20
2015,06,29,05,37,18.10
2015,06,29,05,38,18.10
2015,06,29,05,39,18.00
2015,06,29,05,40,18.00
2015,06,29,05,41,17.90
2015,06,29,05,42,17.90
2015,06,29,05,43,17.90
2015,06,29,05,44,17.90
2015,06,29,05,45,17.90
2015,06,29,05,46,17.80
2015,06,29,05,47,17.80
2015,06,29,05,48,17.80
2015,06,29,05,49,17.80
2015,06,29,05,50,17.80
2015,06,29,05,51,17.90
2015,06,29,05,52,17.90
2015,06,29,05,53,17.90
2015,06,29,05,54,17.90
2015,06,29,05,55,17.90
2015,06,29,05,56,17.90
2015,06,29,05,57,17.90
2015,06,29,05,58,17.90
2015,06,29,05,59,17.90
2015,06,29,06,00,17.90
2015,06,29,06,01,17.90
2015,06,29,06,02,17.90
2015,06,29,06,03,17.90
2015,06,29,06,04,17.80
2015,06,29,06,05,17.80
2015,06,29,06,06,17.80
2015,06,29,06,07,17.80
2015,06,29,06,08,17.80
2015,06,29,06,09,17.80
2015,06,29,06,10,17.80
2015,06,29,06,11,17.80
2015,06,29,06,12,17.80
2015,06,29,06,13,17.70
2015,06,29,06,14,17.80
2015,06,29,06,15,17.70
2015,06,29,06,16,17.80
2015,06,29,06,17,17.80
2015,06,29,06,18,17.80
2015,06,29,06,19,17.80
2015,06,29,06,20,17.80
2015,06,29,06,21,17.80
2015,06,29,06,22,17.70
2015,06,29,06,23,17.70
2015,06,29,06,24,17.70
2015,06,29,06,25,17.70
2015,06,29,06,26,17.70
2015,06,29,06,27,17.70
2015,06,29,06,28,17.70
2015,06,29,06,29,17.60
2015,06,29,06,30,17.60
2015,06,29,06,31,17.60
2015,06,29,06,32,17.60
2015,06,29,06,33,17.60
2015,06,29,06,34,17.60
2015,06,29,06,35,17.60
2015,06,29,06,36,17.60
2015,06,29,06,37,17.60
2015,06,29,06,38,17.60
2015,06,29,06,39,17.60
2015,06,29,06,40,17.60
2015,06,29,06,41,17.60
2015,06,29,06,42,17.60
2015,06,29,06,43,17.60
2015,06,29,06,44,17.60
2015,06,29,06,45,17.60
2015,06,29,06,46,17.60
2015,06,29,06,47,17.60
2015,06,29,06,48,17.60
2015,06,29,06,49,17.70
2015,06,29,06,50,17.70
2015,06,29,06,51,17.70
2015,06,29,06,52,17.70
2015,06,29,06,53,17.80
2015,06,29,06,54,17.80
2015,06,29,06,55,17.80
2015,06,29,06,56,17.90
2015,06,29,06,57,18.00
2015,06,29,06,58,18.00
2015,06,29,06,59,18.10
2015,06,29,07,00,18.10
2015,06,29,07,01,18.20
2015,06,29,07,02,18.30
2015,06,29,07,03,18.30
2015,06,29,07,04,18.40
2015,06,29,07,05,18.50
2015,06,29,07,06,18.60
2015,06,29,07,07,18.70
2015,06,29,07,08,18.70
2015,06,29,07,09,18.80
2015,06,29,07,10,18.90
2015,06,29,07,11,19.00
2015,06,29,07,12,19.10
2015,06,29,07,13,19.20
2015,06,29,07,14,19.30
2015,06,29,07,15,19.40
2015,06,29,07,16,19.50
2015,06,29,07,17,19.70
2015,06,29,07,18,19.80
2015,06,29,07,19,19.90
2015,06,29,07,20,20.10
2015,06,29,07,21,20.20
2015,06,29,07,22,20.30
2015,06,29,07,23,20.40
2015,06,29,07,24,20.50
2015,06,29,07,25,20.60
2015,06,29,07,26,20.60
2015,06,29,07,27,20.70
2015,06,29,07,28,20.80
2015,06,29,07,29,20.80
2015,06,29,07,30,20.90
2015,06,29,07,31,20.90
2015,06,29,07,32,21.00
2015,06,29,07,33,21.00
2015,06,29,07,34,21.10
2015,06,29,07,35,21.10
2015,06,29,07,36,21.10
2015,06,29,07,37,21.10
2015,06,29,07,38,21.20
2015,06,29,07,39,21.20
2015,06,29,07,40,21.30
2015,06,29,07,41,21.30
2015,06,29,07,42,21.40
2015,06,29,07,43,21.40
2015,06,29,07,44,21.50
2015,06,29,07,45,21.60
2015,06,29,07,46,21.60
2015,06,29,07,47,21.70
2015,06,29,07,48,21.70
2015,06,29,07,49,21.70
2015,06,29,07,50,21.70
2015,06,29,07,51,22.00
2015,06,29,07,52,22.10
2015,06,29,07,53,22.10
2015,06,29,07,54,22.20
2015,06,29,07,55,22.30
2015,06,29,07,56,22.40
2015,06,29,07,57,22.40
2015,06,29,07,58,22.50
2015,06,29,07,59,22.60
2015,06,29,08,00,22.70
2015,06,29,08,01,22.70
2015,06,29,08,02,22.80
2015,06,29,08,03,22.90
2015,06,29,08,04,23.00
2015,06,29,08,05,23.10
2015,06,29,08,06,23.20
2015,06,29,08,07,23.20
2015,06,29,08,08,23.30
2015,06,29,08,09,23.30
2015,06,29,08,10,23.40
2015,06,29,08,11,23.40
2015,06,29,08,12,23.50
2015,06,29,08,13,23.60
2015,06,29,08,14,23.60
2015,06,29,08,15,23.70
2015,06,29,08,16,23.80
2015,06,29,08,17,23.80
2015,06,29,08,18,23.90
2015,06,29,08,19,23.90
2015,06,29,08,20,24.00
2015,06,29,08,21,24.10
2015,06,29,08,22,24.10
2015,06,29,08,23,24.20
2015,06,29,08,24,24.20
2015,06,29,08,25,24.20
2015,06,29,08,26,24.20
2015,06,29,08,27,24.20
2015,06,29,08,28,24.30
2015,06,29,08,29,24.30
2015,06,29,08,30,24.40
2015,06,29,08,31,24.40
2015,06,29,08,32,24.40
2015,06,29,08,33,24.50
2015,06,29,08,34,24.60
2015,06,29,08,35,24.70
2015,06,29,08,36,24.70
2015,06,29,08,37,24.80
2015,06,29,08,38,24.80
2015,06,29,08,39,24.80
2015,06,29,08,40,24.90
2015,06,29,08,41,24.90
2015,06,29,08,42,25.00
2015,06,29,08,43,25.00
2015,06,29,08,44,25.10
2015,06,29,08,45,25.10
2015,06,29,08,46,25.20
2015,06,29,08,47,25.20
2015,06,29,08,48,25.20
2015,06,29,08,49,25.30
2015,06,29,08,50,25.30
2015,06,29,08,51,25.30
2015,06,29,08,52,25.40
2015,06,29,08,53,25.30
2015,06,29,08,54,25.30
2015,06,29,08,55,25.30
2015,06,29,08,56,25.30
2015,06,29,08,57,25.40
2015,06,29,08,58,25.40
2015,06,29,08,59,25.40
2015,06,29,09,00,25.40
2015,06,29,09,01,25.40
2015,06,29,09,02,25.50
2015,06,29,09,03,25.50
2015,06,29,09,04,25.60
2015,06,29,09,05,25.60
2015,06,29,09,06,25.70
2015,06,29,09,07,25.70
2015,06,29,09,08,25.70
2015,06,29,09,09,25.80
2015,06,29,09,10,25.80
2015,06,29,09,11,25.80
2015,06,29,09,12,25.80
2015,06,29,09,13,25.80
2015,06,29,09,14,25.90
2015,06,29,09,15,25.90
2015,06,29,09,16,25.90
2015,06,29,09,17,26.00
2015,06,29,09,18,26.00
2015,06,29,09,19,26.10
2015,06,29,09,20,26.10
2015,06,29,09,21,26.20
2015,06,29,09,22,26.20
2015,06,29,09,23,26.20
2015,06,29,09,24,26.20
2015,06,29,09,25,26.20
2015,06,29,09,26,26.20
2015,06,29,09,27,26.20
2015,06,29,09,28,26.20
2015,06,29,09,29,26.20
2015,06,29,09,30,26.20
2015,06,29,09,31,26.10
2015,06,29,09,32,26.10
2015,06,29,09,33,26.10
2015,06,29,09,34,26.20
2015,06,29,09,35,26.20
2015,06,29,09,36,26.20
2015,06,29,09,37,26.20
2015,06,29,09,38,26.20
2015,06,29,09,39,26.20
2015,06,29,09,40,26.20
2015,06,29,09,41,26.20
2015,06,29,09,42,26.20
2015,06,29,09,43,26.20
2015,06,29,09,44,26.30
2015,06,29,09,45,26.30
2015,06,29,09,46,26.30
2015,06,29,09,47,26.40
2015,06,29,09,48,26.40
2015,06,29,09,49,26.40
2015,06,29,09,50,26.40
2015,06,29,09,51,26.50
2015,06,29,09,52,26.50
2015,06,29,09,53,26.50
2015,06,29,09,54,26.50
2015,06,29,09,55,26.50
2015,06,29,09,56,26.40
2015,06,29,09,57,26.50
2015,06,29,09,58,26.50
2015,06,29,09,59,26.50
2015,06,29,10,00,26.50
2015,06,29,10,01,26.50
2015,06,29,10,02,26.50
2015,06,29,10,03,26.40
2015,06,29,10,04,26.40
2015,06,29,10,05,26.40
2015,06,29,10,06,26.40
2015,06,29,10,07,26.40
2015,06,29,10,08,26.40
2015,06,29,10,09,26.40
2015,06,29,10,10,26.40
2015,06,29,10,11,26.50
2015,06,29,10,12,26.50
2015,06,29,10,13,26.50
2015,06,29,10,14,26.60
2015,06,29,10,15,26.60
2015,06,29,10,16,26.50
2015,06,29,10,17,26.40
2015,06,29,10,18,26.40
2015,06,29,10,19,26.30
2015,06,29,10,20,26.30
2015,06,29,10,21,26.30
2015,06,29,10,22,26.30
2015,06,29,10,23,26.30
2015,06,29,10,24,26.30
2015,06,29,10,25,26.30
2015,06,29,10,26,26.30
2015,06,29,10,27,26.30
2015,06,29,10,28,26.30
2015,06,29,10,29,26.40
2015,06,29,10,30,26.40
2015,06,29,10,31,26.40
2015,06,29,10,32,26.50
2015,06,29,10,33,26.50
2015,06,29,10,34,26.60
2015,06,29,10,35,26.60
2015,06,29,10,36,26.70
2015,06,29,10,37,26.70
2015,06,29,10,38,26.70
2015,06,29,10,39,26.80
2015,06,29,10,40,26.80
2015,06,29,10,41,26.90
2015,06,29,10,42,26.90
2015,06,29,10,43,27.00
2015,06,29,10,44,27.10
2015,06,29,10,45,27.10
2015,06,29,10,46,27.20
2015,06,29,10,47,27.20
2015,06,29,10,48,27.20
2015,06,29,10,49,27.30
2015,06,29,10,50,27.30
2015,06,29,10,51,27.30
2015,06,29,10,52,27.30
2015,06,29,10,53,27.30
2015,06,29,10,54,27.30
2015,06,29,10,55,27.30
2015,06,29,10,56,27.20
2015,06,29,10,57,27.20
2015,06,29,10,58,27.30
2015,06,29,10,59,27.30
2015,06,29,11,00,27.30
2015,06,29,11,01,27.30
2015,06,29,11,02,27.30
2015,06,29,11,03,27.30
2015,06,29,11,04,27.20
2015,06,29,11,05,27.20
2015,06,29,11,06,27.20
2015,06,29,11,07,27.20
2015,06,29,11,08,27.20
2015,06,29,11,09,27.20
2015,06,29,11,10,27.20
2015,06,29,11,11,27.20
2015,06,29,11,12,27.20
2015,06,29,11,13,27.20
2015,06,29,11,14,27.20
2015,06,29,11,15,27.20
2015,06,29,11,16,27.20
2015,06,29,11,17,27.20
2015,06,29,11,18,27.10
2015,06,29,11,19,27.20
2015,06,29,11,20,27.20
2015,06,29,11,21,27.30
2015,06,29,11,22,27.30
2015,06,29,11,23,27.30
2015,06,29,11,24,27.30
2015,06,29,11,25,27.30
2015,06,29,11,26,27.30
2015,06,29,11,27,27.30
2015,06,29,11,28,27.30
2015,06,29,11,29,27.20
2015,06,29,11,30,27.20
2015,06,29,11,31,27.20
2015,06,29,11,32,27.30
2015,06,29,11,33,27.30
2015,06,29,11,34,27.40
2015,06,29,11,35,27.40
2015,06,29,11,36,27.50
2015,06,29,11,37,27.50
2015,06,29,11,38,27.60
2015,06,29,11,39,27.60
2015,06,29,11,40,27.70
2015,06,29,11,41,27.70
2015,06,29,11,42,27.70
2015,06,29,11,43,27.80
2015,06,29,11,44,27.80
2015,06,29,11,45,27.90
2015,06,29,11,46,27.90
2015,06,29,11,47,27.80
2015,06,29,11,48,27.80
2015,06,29,11,49,27.80
2015,06,29,11,50,27.70
2015,06,29,11,51,27.70
2015,06,29,11,52,27.70
2015,06,29,11,53,27.70
2015,06,29,11,54,27.70
2015,06,29,11,55,27.80
2015,06,29,11,56,27.80
2015,06,29,11,57,27.70
2015,06,29,11,58,27.70
2015,06,29,11,59,27.70
2015,06,29,12,00,27.70
2015,06,29,12,01,27.60
2015,06,29,12,02,27.60
2015,06,29,12,03,27.60
2015,06,29,12,04,27.70
2015,06,29,12,05,27.70
2015,06,29,12,06,27.80
2015,06,29,12,07,27.80
2015,06,29,12,08,27.80
2015,06,29,12,09,27.80
2015,06,29,12,10,27.80
2015,06,29,12,11,27.80
2015,06,29,12,12,27.90
2015,06,29,12,13,27.90
2015,06,29,12,14,28.00
2015,06,29,12,15,28.00
2015,06,29,12,16,28.10
2015,06,29,12,17,28.10
2015,06,29,12,18,28.10
2015,06,29,12,19,28.20
2015,06,29,12,20,28.30
2015,06,29,12,21,28.30
2015,06,29,12,22,28.30
2015,06,29,12,23,28.30
2015,06,29,12,24,28.30
2015,06,29,12,25,28.30
2015,06,29,12,26,28.20
2015,06,29,12,27,28.20
2015,06,29,12,28,28.20
2015,06,29,12,29,28.20
2015,06,29,12,30,28.20
2015,06,29,12,31,28.20
2015,06,29,12,32,28.20
2015,06,29,12,33,28.30
2015,06,29,12,34,28.30
2015,06,29,12,35,28.30
2015,06,29,12,36,28.30
2015,06,29,12,37,28.30
2015,06,29,12,38,28.30
2015,06,29,12,39,28.30
2015,06,29,12,40,28.30
2015,06,29,12,41,28.30
2015,06,29,12,42,28.30
2015,06,29,12,43,28.30
2015,06,29,12,44,28.30
2015,06,29,12,45,28.30
2015,06,29,12,46,28.40
2015,06,29,12,47,28.40
2015,06,29,12,48,28.40
2015,06,29,12,49,28.50
2015,06,29,12,50,28.60
2015,06,29,12,51,28.70
2015,06,29,12,52,28.80
2015,06,29,12,53,28.90
2015,06,29,12,54,28.90
2015,06,29,12,55,28.80
2015,06,29,12,56,28.80
2015,06,29,12,57,28.80
2015,06,29,12,58,28.80
2015,06,29,12,59,28.80
2015,06,29,13,00,28.90
2015,06,29,13,01,29.00
2015,06,29,13,02,29.00
2015,06,29,13,03,29.00
2015,06,29,13,04,29.00
2015,06,29,13,05,28.90
2015,06,29,13,06,29.00
2015,06,29,13,07,29.00
2015,06,29,13,08,29.10
2015,06,29,13,09,29.10
2015,06,29,13,10,29.10
2015,06,29,13,11,29.20
2015,06,29,13,12,29.20
2015,06,29,13,13,29.10
2015,06,29,13,14,29.00
2015,06,29,13,15,28.90
2015,06,29,13,16,28.80
2015,06,29,13,17,28.80
2015,06,29,13,18,28.80
2015,06,29,13,19,28.80
2015,06,29,13,20,28.80
2015,06,29,13,21,28.80
2015,06,29,13,22,28.80
2015,06,29,13,23,28.80
2015,06,29,13,24,28.80
2015,06,29,13,25,28.90
2015,06,29,13,26,28.90
2015,06,29,13,27,29.00
2015,06,29,13,28,29.10
2015,06,29,13,29,29.20
2015,06,29,13,30,29.20
2015,06,29,13,31,29.20
2015,06,29,13,32,29.20
2015,06,29,13,33,29.10
2015,06,29,13,34,29.20
2015,06,29,13,35,29.20
2015,06,29,13,36,29.20
2015,06,29,13,37,29.20
2015,06,29,13,38,29.20
2015,06,29,13,39,29.20
2015,06,29,13,40,29.20
2015,06,29,13,41,29.20
2015,06,29,13,42,29.20
2015,06,29,13,43,29.20
2015,06,29,13,44,29.10
2015,06,29,13,45,29.10
2015,06,29,13,46,29.10
2015,06,29,13,47,29.00
2015,06,29,13,48,29.00
2015,06,29,13,49,29.00
2015,06,29,13,50,29.10
2015,06,29,13,51,29.10
2015,06,29,13,52,29.10
2015,06,29,13,53,29.10
2015,06,29,13,54,29.20
2015,06,29,13,55,29.30
2015,06,29,13,56,29.30
2015,06,29,13,57,29.30
2015,06,29,13,58,29.30
2015,06,29,13,59,29.30
2015,06,29,14,00,29.30
2015,06,29,14,01,29.30
2015,06,29,14,02,29.40
2015,06,29,14,03,29.50
2015,06,29,14,04,29.50
2015,06,29,14,05,29.60
2015,06,29,14,06,29.60
2015,06,29,14,07,29.70
2015,06,29,14,08,29.60
2015,06,29,14,09,29.60
2015,06,29,14,10,29.50
2015,06,29,14,11,29.50
2015,06,29,14,12,29.40
2015,06,29,14,13,29.40
2015,06,29,14,14,29.40
2015,06,29,14,15,29.40
2015,06,29,14,16,29.40
2015,06,29,14,17,29.40
2015,06,29,14,18,29.40
2015,06,29,14,19,29.40
2015,06,29,14,20,29.40
2015,06,29,14,21,29.40
2015,06,29,14,22,29.40
2015,06,29,14,23,29.40
2015,06,29,14,24,29.40
2015,06,29,14,25,29.40
2015,06,29,14,26,29.40
2015,06,29,14,27,29.50
2015,06,29,14,28,29.50
2015,06,29,14,29,29.60
2015,06,29,14,30,29.60
2015,06,29,14,31,29.60
2015,06,29,14,32,29.50
2015,06,29,14,33,29.50
2015,06,29,14,34,29.50
2015,06,29,14,35,29.60
2015,06,29,14,36,29.70
2015,06,29,14,37,29.70
2015,06,29,14,38,29.70
2015,06,29,14,39,29.70
2015,06,29,14,40,29.70
2015,06,29,14,41,29.60
2015,06,29,14,42,29.50
2015,06,29,14,43,29.40
2015,06,29,14,44,29.40
2015,06,29,14,45,29.30
2015,06,29,14,46,29.10
2015,06,29,14,47,29.00
2015,06,29,14,48,29.00
2015,06,29,14,49,28.90
2015,06,29,14,50,28.90
2015,06,29,14,51,28.80
2015,06,29,14,52,28.70
2015,06,29,14,53,28.60
2015,06,29,14,54,28.50
2015,06,29,14,55,28.50
2015,06,29,14,56,28.40
2015,06,29,14,57,28.30
2015,06,29,14,58,28.30
2015,06,29,14,59,28.20
2015,06,29,15,00,28.20
2015,06,29,15,01,28.20
2015,06,29,15,02,28.10
2015,06,29,15,03,28.10
2015,06,29,15,04,28.10
2015,06,29,15,05,28.20
2015,06,29,15,06,28.20
2015,06,29,15,07,28.20
2015,06,29,15,08,28.20
2015,06,29,15,09,28.20
2015,06,29,15,10,28.20
2015,06,29,15,11,28.20
2015,06,29,15,12,28.20
2015,06,29,15,13,28.30
2015,06,29,15,14,28.30
2015,06,29,15,15,28.40
2015,06,29,15,16,28.40
2015,06,29,15,17,28.50
2015,06,29,15,18,28.50
2015,06,29,15,19,28.50
2015,06,29,15,20,28.50
2015,06,29,15,21,28.60
2015,06,29,15,22,28.60
2015,06,29,15,23,28.60
2015,06,29,15,24,28.60
2015,06,29,15,25,28.60
2015,06,29,15,26,28.60
2015,06,29,15,27,28.50
2015,06,29,15,28,28.50
2015,06,29,15,29,28.50
2015,06,29,15,30,28.50
2015,06,29,15,31,28.40
2015,06,29,15,32,28.40
2015,06,29,15,33,28.30
2015,06,29,15,34,28.30
2015,06,29,15,35,28.30
2015,06,29,15,36,28.20
2015,06,29,15,37,28.20
2015,06,29,15,38,28.20
2015,06,29,15,39,28.20
2015,06,29,15,40,28.10
2015,06,29,15,41,28.10
2015,06,29,15,42,28.10
2015,06,29,15,43,28.10
2015,06,29,15,44,28.10
2015,06,29,15,45,28.10
2015,06,29,15,46,28.10
2015,06,29,15,47,28.10
2015,06,29,15,48,28.10
2015,06,29,15,49,28.10
2015,06,29,15,50,28.10
2015,06,29,15,51,28.10
2015,06,29,15,52,28.10
2015,06,29,15,53,28.10
2015,06,29,15,54,28.20
2015,06,29,15,55,28.20
2015,06,29,15,56,28.20
2015,06,29,15,57,28.10
2015,06,29,15,58,28.10
2015,06,29,15,59,28.10
2015,06,29,16,00,28.00
2015,06,29,16,01,27.90
2015,06,29,16,02,27.90
2015,06,29,16,03,27.90
2015,06,29,16,04,27.90
2015,06,29,16,05,28.00
2015,06,29,16,06,28.10
2015,06,29,16,07,28.10
2015,06,29,16,08,28.20
2015,06,29,16,09,28.30
2015,06,29,16,10,28.40
2015,06,29,16,11,28.50
2015,06,29,16,12,28.50
2015,06,29,16,13,28.70
2015,06,29,16,14,28.80
2015,06,29,16,15,28.80
2015,06,29,16,16,28.80
2015,06,29,16,17,28.80
2015,06,29,16,18,28.90
2015,06,29,16,19,28.90
2015,06,29,16,20,28.90
2015,06,29,16,21,28.90
2015,06,29,16,22,28.90
2015,06,29,16,23,28.90
2015,06,29,16,24,29.00
2015,06,29,16,25,29.00
2015,06,29,16,26,29.00
2015,06,29,16,27,29.10
2015,06,29,16,28,29.10
2015,06,29,16,29,29.10
2015,06,29,16,30,29.10
2015,06,29,16,31,29.10
2015,06,29,16,32,29.10
2015,06,29,16,33,29.10
2015,06,29,16,34,29.00
2015,06,29,16,35,29.00
2015,06,29,16,36,29.00
2015,06,29,16,37,29.00
2015,06,29,16,38,29.00
2015,06,29,16,39,29.10
2015,06,29,16,40,29.10
2015,06,29,16,41,29.10
2015,06,29,16,42,29.10
2015,06,29,16,43,29.10
2015,06,29,16,44,29.10
2015,06,29,16,45,29.10
2015,06,29,16,46,29.10
2015,06,29,16,47,29.10
2015,06,29,16,48,29.20
2015,06,29,16,49,29.30
2015,06,29,16,50,29.40
2015,06,29,16,51,29.50
2015,06,29,16,52,29.60
2015,06,29,16,53,29.70
2015,06,29,16,54,29.80
2015,06,29,16,55,29.80
2015,06,29,16,56,29.90
2015,06,29,16,57,29.90
2015,06,29,16,58,29.90
2015,06,29,16,59,29.90
2015,06,29,17,00,29.90
2015,06,29,17,01,29.90
2015,06,29,17,02,29.90
2015,06,29,17,03,30.00
2015,06,29,17,04,30.00
2015,06,29,17,05,30.00
2015,06,29,17,06,30.00
2015,06,29,17,07,30.00
2015,06,29,17,08,30.00
2015,06,29,17,09,30.00
2015,06,29,17,10,30.10
2015,06,29,17,11,30.10
2015,06,29,17,12,30.20
2015,06,29,17,13,30.20
2015,06,29,17,14,30.20
2015,06,29,17,15,30.20
2015,06,29,17,16,30.20
2015,06,29,17,17,30.20
2015,06,29,17,18,30.20
2015,06,29,17,19,30.10